Starlink 4482

operational
NORAD ID: 53530 Int'l Des: 2022-101 Owner: SPXS Country: US Constellation: starlink
LEOCIRCULAR

About Starlink 4482

Description loading...

Live Position

Loading 3D Globe...

Upcoming Passes

Altitude History

Altitude vs Time

uPlot chart will show altitude changes over time

Two-Line Element Set

1 53530U 22101D 25257.38962392 -.00001807 00000-0 -95514-4 0 9991
2 53530 53.2169 145.7850 0001314 89.6711 270.4432 15.08826116169540
Epoch: Sep 14, 2025 • Age: 20 hours

Current Status

Altitude 558.0 km
Velocity 7.58 km/s
Sub-Earth Point -50.18°S, 1.01°W
Launch Date Aug 19, 2022
Age 3 years
Type internet

Technical Details

Classification Payload
Mass 300.00 kg
Dry Mass 290.00 kg
Total Mass 300.00 kg
Length 0.20 m
Diameter 2.80 m
Span 9.00 m
Shape Box + pan
Manufacturer SPXS
Bus Type Starlink
Phase Status In Orbit
Owner/State SPXS/US

Large Constellations

Loading constellations...